Weather History for Fort Rucker / Ozark, AL

Change the Weather History Date:

Wednesday, October 16, 2013

  Actual Average (KOZR) Record (KOZR)
Temperature  
Mean Temperature 69 °F -  
Max Temperature 81 °F 75 °F 88 °F (2011)
Min Temperature 57 °F 53 °F 44 °F (2000)
Cooling Degree Days 4    
Growing Degree Days 19 (Base 50)    
Moisture  
Dew Point 60 °F    
Average Humidity 77    
Maximum Humidity 94    
Minimum Humidity 47    
Precipitation  
Precipitation 0.00 in - - ()
Sea Level Pressure  
Sea Level Pressure 29.69 in    
Wind  
Wind Speed 2 mph (NNE)    
Max Wind Speed 5 mph    
Max Gust Speed -    
Visibility 9 miles    
Events      
Averages and records for this station are not official NWS values.
T = Trace of Precipitation, MM = Missing Value Source: NWS Daily Summary

Daily Weather History Graph

Daily Weather History Graph

Search for Another Location

Airport:

Trip Planner

Search our weather history database for the weather conditions in past years. The results will help you decide how hot, cold, wet, or windy it might be!

Date:

Astronomy

Oct. 16, 2013 Rise Set
Actual Time 6:46 AM CDT 6:09 PM CDT
Civil Twilight 6:21 AM CDT 6:33 PM CDT
Nautical Twilight 5:53 AM CDT 7:01 PM CDT
Astronomical Twilight 5:25 AM CDT 7:30 PM CDT
Moon 4:42 PM CDT (10/16) 4:21 AM CDT (10/16)
Length of Visible Light 12h 11m
Length of Day
11h 22m
Waxing Gibbous, 94% of the Moon is Illuminated
Oct 16
Waxing Gibbous
Oct 18
Full
Oct 26
Last Quarter
Nov 3
New
Nov 9
First Quarter

Hourly Weather History & Observations

Time (CDT) Temp. Heat Index Dew Point Humidity Pressure Visibility Wind Dir Wind Speed Gust Speed Precip Events Conditions
12:53 AM 62.1 °F - 60.1 °F 93% 29.68 in 8.0 mi East 3.5 mph - N/A   Clear
1:53 AM 62.1 °F - 59.0 °F 90% 29.69 in 10.0 mi North 3.5 mph - N/A   Clear
2:53 AM 62.1 °F - 59.0 °F 90% 29.67 in 10.0 mi Calm Calm - N/A   Clear
3:53 AM 61.0 °F - 59.0 °F 93% 29.67 in 10.0 mi Calm Calm - N/A   Clear
4:53 AM 57.9 °F - 55.9 °F 93% 29.67 in 10.0 mi Calm Calm - N/A   Clear
5:39 AM 59.0 °F - 57.2 °F 94% 30.00 in 1.8 mi Calm Calm - N/A   Clear
5:45 AM 60.8 °F - 57.2 °F 88% 30.00 in 3.0 mi NE 3.5 mph - N/A   Clear
5:53 AM 59.0 °F - 57.0 °F 93% 29.68 in 10.0 mi Calm Calm - N/A   Clear
6:53 AM 59.0 °F - 55.9 °F 90% 29.70 in 6.0 mi North 3.5 mph - N/A   Clear
7:53 AM 63.0 °F - 59.0 °F 87% 29.70 in 10.0 mi Calm Calm - N/A   Clear
8:53 AM 64.9 °F - 60.1 °F 84% 29.71 in 10.0 mi ESE 4.6 mph - N/A   Clear
9:53 AM 71.1 °F - 61.0 °F 70% 29.73 in 10.0 mi Calm Calm - N/A   Unknown
10:53 AM 75.9 °F - 62.1 °F 62% 29.71 in 10.0 mi West 3.5 mph - N/A   Clear
11:53 AM 79.0 °F - 60.1 °F 52% 29.69 in 10.0 mi Calm Calm - N/A   Partly Cloudy
12:53 PM 81.0 °F 81.6 °F 60.1 °F 49% 29.67 in 10.0 mi Calm Calm - N/A   Partly Cloudy
1:53 PM 80.1 °F 80.7 °F 59.0 °F 48% 29.64 in 10.0 mi West 3.5 mph - N/A   Clear
2:53 PM 81.0 °F 81.3 °F 59.0 °F 47% 29.63 in 10.0 mi Calm Calm - N/A   Mostly Cloudy
3:53 PM 80.1 °F 80.9 °F 60.1 °F 50% 29.62 in 10.0 mi Calm Calm - N/A   Clear
4:53 PM 81.0 °F 81.6 °F 60.1 °F 49% 29.61 in 10.0 mi Calm Calm - N/A   Clear
5:53 PM 75.9 °F - 62.1 °F 62% 29.62 in 10.0 mi Calm Calm - N/A   Clear
6:53 PM 72.0 °F - 64.9 °F 78% 29.63 in 10.0 mi Calm Calm - N/A   Clear
7:53 PM 68.0 °F - 64.0 °F 87% 29.65 in 10.0 mi Calm Calm - N/A   Clear
8:53 PM 66.9 °F - 63.0 °F 87% 29.65 in 10.0 mi Calm Calm - N/A   Clear
9:53 PM 66.9 °F - 62.1 °F 84% 29.66 in 10.0 mi Calm Calm - N/A   Clear
10:53 PM 64.9 °F - 62.1 °F 90% 29.65 in 10.0 mi Calm Calm - N/A   Clear
11:53 PM 64.9 °F - 61.0 °F 87% 29.63 in 10.0 mi Calm Calm - N/A   Clear